[[{"header":{"parameterUnit":"m.s-1","parameterCategory":1,"la1":30.2991,"la2":30.254,"lo1":-89.0895,"lo2":-89.0444,"dy":0.0017,"dx":0.0017,"nx":28,"ny":28,"refTime":"2023-09-17T09:00:00:Z","depth":0,"parameterNumber":2,"parameterNumberName":"U-component_of_WINDS"},"data":[0,0,0,0,0,0,0,0,0,0,0,0,0,0,0,0,0,0,0,0,0,0,0,0,0,0,0,0,0,0,0,0,0,0,0,0,0,0,0,0,0,0,0,0,0,0,0,0,0,0,0,0,0,0,0,0,0,0,-2.0653,-2.0653,0,-2.0662,-2.0662,-2.0662,-2.0635,-2.0634,-2.0633,-2.0632,-2.0641,-2.0642,-2.0643,0,0,0,0,0,0,0,0,0,0,0,0,0,-2.0611,-2.0612,-2.0653,-2.0653,-2.0653,-2.0662,-2.0662,-2.0662,-2.0635,-2.0634,-2.0633,-2.0632,-2.064,-2.0642,-2.0643,0,0,0,0,0,0,0,0,0,0,0,0,0,-2.0625,-2.0612,-2.0653,-2.0641,-2.064,-2.0662,-2.0662,-2.0663,-2.0635,-2.0634,-2.0633,-2.0632,-2.064,-2.0642,-2.0643,-2.0678,0,0,-2.0648,-2.0648,0,0,0,0,0,0,0,0,-2.0625,-2.0627,-2.0642,-2.0642,-2.064,-2.0646,-2.065,-2.0668,-2.0636,-2.0637,-2.0632,-2.0631,-2.0644,-2.0645,-2.0649,-2.0678,-2.0678,-2.0648,-2.0649,-2.0649,-2.065,0,0,0,0,0,0,0,-2.0624,-2.0626,-2.0657,-2.0643,-2.0641,-2.0634,-2.0635,-2.0654,-2.0647,-2.0637,-2.0635,-2.0636,-2.0643,-2.0648,-2.0649,-2.0678,-2.0648,-2.0649,-2.065,-2.0651,-2.0737,-2.0738,0,0,0,0,0,0,-2.0624,-2.0626,-2.0656,-2.0657,-2.0629,-2.0636,-2.0637,-2.0646,-2.0647,-2.0646,-2.0637,-2.0635,-2.0646,-2.0647,-2.0649,-2.0691,-2.0649,-2.0651,-2.0652,-2.0735,-2.0737,-2.0739,0,0,0,0,0,0,-2.0624,-2.0627,-2.0656,-2.0641,-2.0644,-2.0638,-2.0648,-2.0646,-2.0651,-2.0647,-2.0646,-2.0644,-2.0645,-2.0647,-2.0671,-2.0691,-2.0651,-2.0653,-2.0734,-2.0736,-2.0738,-2.0773,0,0,0,0,0,0,-2.0622,-2.0627,-2.064,-2.0641,-2.0645,-2.0678,-2.0649,-2.0648,-2.0654,-2.0651,-2.0653,-2.0652,-2.0644,-2.0669,-2.0673,-2.0692,-2.0654,-2.0732,-2.0735,-2.0737,-2.077,-2.0776,-2.0781,0,0,0,0,0,-2.0621,-2.0649,-2.0641,-2.0645,-2.0661,-2.0679,-2.0681,-2.0672,-2.0656,-2.0669,-2.0667,-2.0652,-2.0688,-2.0672,-2.0675,-2.0696,-2.0731,-2.0734,-2.0737,-2.0768,-2.0775,-2.0781,0,0,0,0,0,0,-2.065,-2.0649,-2.064,-2.067,-2.0675,-2.0674,-2.0691,-2.0679,-2.0689,-2.0685,-2.0673,-2.0673,-2.07,-2.07,-2.0682,-2.0729,-2.0706,-2.0711,-2.0729,-2.0735,-2.0741,-2.0741,-2.0655,0,0,0,0,0,-2.066,-2.0675,-2.0673,-2.07,-2.0703,-2.0696,-2.0704,-2.0696,-2.0701,-2.0702,-2.0701,-2.0706,-2.0718,-2.0727,-2.0738,-2.077,-2.077,-2.0786,-2.0791,-2.0796,-2.08,-2.0818,-2.0825,-2.0749,-2.0749,-2.0749,0,0,-2.0681,-2.0682,-2.0692,-2.0706,-2.0709,-2.0724,-2.0698,-2.0716,-2.0727,-2.0705,-2.0728,-2.0727,-2.0731,-2.076,-2.0772,-2.0761,-2.0821,-2.08,-2.0803,-2.0805,-2.0821,-2.0829,-2.0835,-2.0751,-2.0751,-2.075,0,0,-2.0727,-2.0729,-2.0752,-2.0756,-2.0761,-2.0757,-2.0762,-2.0763,-2.0763,-2.0785,-2.0769,-2.0782,-2.0804,-2.0808,-2.0812,-2.0861,-2.0848,-2.0864,-2.0894,-2.0911,-2.0917,-2.0923,-2.0941,-2.0947,-2.0868,-2.0868,-2.0868,0,-2.0752,-2.0776,-2.0765,-2.0784,-2.0791,-2.0772,-2.0795,-2.0799,-2.0807,-2.0812,-2.0799,-2.0825,-2.0827,-2.0857,-2.0868,-2.0872,-2.0879,-2.0865,-2.0917,-2.0923,-2.0927,-2.0944,-2.0951,-2.087,-2.087,-2.087,-2.087,0,-2.0807,-2.0823,-2.0841,-2.085,-2.0859,-2.0879,-2.0872,-2.0882,-2.0873,-2.087,-2.0894,-2.0895,-2.0907,-2.0913,-2.0904,-2.0942,-2.0934,-2.0919,-2.0896,-2.0937,-2.0953,-2.0959,-2.0873,-2.0873,-2.0872,-2.0871,0,0,-2.0872,-2.0876,-2.0883,-2.0887,-2.0891,-2.0904,-2.0924,-2.0935,-2.0944,-2.095,-2.0967,-2.0986,-2.0972,-2.0978,-2.097,-2.0985,-2.1025,-2.0968,-2.0968,-2.098,-2.1067,-2.1079,-2.1086,-2.1016,-2.1017,-2.1018,-2.1067,0,-2.0918,-2.0954,-2.0945,-2.098,-2.0995,-2.0977,-2.0995,-2.0999,-2.0997,-2.101,-2.1007,-2.1021,-2.1001,-2.1005,-2.1019,-2.1017,-2.1042,-2.1013,-2.1032,-2.1032,-2.1032,-2.1095,-2.1107,-2.1153,-2.1073,-2.1074,-2.1074,0,-2.0977,-2.0987,-2.1024,-2.1026,-2.1032,-2.1048,-2.1059,-2.1071,-2.1076,-2.1073,-2.1079,-2.1068,-2.1088,-2.1064,-2.1092,-2.1072,-2.1079,-2.1079,-2.1081,-2.1083,-2.1057,-2.11,-2.1168,-2.1175,-2.1084,-2.1083,-2.1083,0,-2.1023,-2.1045,-2.107,-2.1074,-2.1077,-2.1089,-2.1091,-2.1094,-2.1102,-2.1111,-2.1116,-2.1127,-2.1133,-2.1141,-2.1134,-2.1117,-2.1163,-2.1138,-2.1161,-2.1162,-2.1173,-2.1172,-2.1244,-2.1175,-2.1175,-2.1175,-2.1175,0,-2.1076,-2.11,-2.109,-2.1106,-2.1132,-2.1121,-2.1147,-2.1146,-2.115,-2.1165,-2.1149,-2.1164,-2.1152,-2.1166,-2.1159,-2.1184,-2.1186,-2.1185,-2.1183,-2.1187,-2.1187,-2.1192,-2.1189,-2.1177,-2.1176,-2.1176,-2.1176,0,-2.1132,-2.1126,-2.1153,-2.1154,-2.1155,-2.1174,-2.1175,-2.1189,-2.1186,-2.1205,-2.1209,-2.1204,-2.1219,-2.1212,-2.1227,-2.1223,-2.1254,-2.1248,-2.1253,-2.1252,-2.1276,-2.1275,-2.1355,-2.1365,-2.1289,-2.1289,-2.129,0,-2.1167,-2.1185,-2.1188,-2.1198,-2.1201,-2.1216,-2.1224,-2.1214,-2.1223,-2.123,-2.1244,-2.1258,-2.1268,-2.1293,-2.1291,-2.1302,-2.1297,-2.1324,-2.1298,-2.1302,-2.1298,-2.1298,-2.13,-2.1329,-2.133,-2.1331,-2.1331,0,-2.123,-2.1227,-2.124,-2.1252,-2.1262,-2.1271,-2.1278,-2.1286,-2.1277,-2.1288,-2.1304,-2.1312,-2.1328,-2.1342,-2.1352,-2.1354,-2.1342,-2.1339,-2.1346,-2.135,-2.1353,-2.1353,-2.1268,-2.1338,-2.1337,-2.1337,-2.1336,-2.1336,-2.1277,-2.1293,-2.1298,-2.1313,-2.1318,-2.1325,-2.1339,-2.1338,-2.1351,-2.1364,-2.1356,-2.1375,-2.1379,-2.1392,-2.1395,-2.141,-2.1399,-2.1408,-2.141,-2.1413,-2.1417,-2.135,-2.1411,-2.1411,-2.1411,-2.1411,-2.1411,0,-2.1341,-2.1344,-2.1357,-2.1369,-2.138,-2.1368,-2.1375,-2.1386,-2.1403,-2.1408,-2.1419,-2.1437,-2.1451,-2.1449,-2.1462,-2.1474,-2.1468,-2.1477,-2.1477,-2.1478,-2.1425,-2.1419,-2.1482,-2.1482,-2.1482,-2.1482,-2.1482,-2.1482,-2.1376,-2.1401,-2.1399,-2.1427,-2.1429,-2.1447,-2.1453,-2.146,-2.1464,-2.1485,-2.1497,-2.1496,-2.1499,-2.1511,-2.1524,-2.1523,-2.1529,-2.154,-2.1537,-2.1488,-2.1481,-2.1475,-2.1469,-2.1541,-2.1541,-2.1589,-2.159,-2.159]},{"header":{"parameterUnit":"m.s-1","parameterCategory":1,"la1":30.2991,"la2":30.254,"lo1":-89.0895,"lo2":-89.0444,"dy":0.0017,"dx":0.0017,"nx":28,"ny":28,"refTime":"2023-09-17T09:00:00:Z","depth":0,"parameterNumber":3,"parameterNumberName":"V-component_of_WINDS"},"data":[0,0,0,0,0,0,0,0,0,0,0,0,0,0,0,0,0,0,0,0,0,0,0,0,0,0,0,0,0,0,0,0,0,0,0,0,0,0,0,0,0,0,0,0,0,0,0,0,0,0,0,0,0,0,0,0,0,0,-3.7089,-3.7088,0,-3.7085,-3.7085,-3.7085,-3.7031,-3.703,-3.7029,-3.7027,-3.7023,-3.7024,-3.7025,0,0,0,0,0,0,0,0,0,0,0,0,0,-3.7048,-3.7049,-3.7089,-3.7088,-3.7088,-3.7085,-3.7085,-3.7085,-3.7031,-3.703,-3.7028,-3.7027,-3.7022,-3.7024,-3.7025,0,0,0,0,0,0,0,0,0,0,0,0,0,-3.7057,-3.705,-3.7089,-3.7061,-3.7059,-3.7085,-3.7085,-3.7085,-3.7032,-3.703,-3.7028,-3.7026,-3.7022,-3.7024,-3.7025,-3.7077,0,0,-3.7031,-3.7031,0,0,0,0,0,0,0,0,-3.7057,-3.7059,-3.7065,-3.7063,-3.7061,-3.7056,-3.7069,-3.7082,-3.7032,-3.7042,-3.7027,-3.7025,-3.7036,-3.7036,-3.704,-3.7077,-3.7076,-3.7031,-3.7032,-3.7033,-3.7033,0,0,0,0,0,0,0,-3.7056,-3.7059,-3.7087,-3.7066,-3.7063,-3.7049,-3.7048,-3.7071,-3.705,-3.7041,-3.7037,-3.7038,-3.7034,-3.7038,-3.7039,-3.7076,-3.7031,-3.7032,-3.7033,-3.7034,-3.7156,-3.7159,0,0,0,0,0,0,-3.706,-3.7059,-3.7087,-3.7087,-3.7054,-3.7052,-3.705,-3.706,-3.705,-3.7046,-3.7039,-3.7035,-3.7036,-3.7037,-3.7039,-3.71,-3.7033,-3.7034,-3.7035,-3.7154,-3.7157,-3.7159,0,0,0,0,0,0,-3.7059,-3.7063,-3.7087,-3.7072,-3.7074,-3.7054,-3.7065,-3.7061,-3.7065,-3.7049,-3.7044,-3.7048,-3.7035,-3.7037,-3.7068,-3.7099,-3.7035,-3.7036,-3.7152,-3.7155,-3.7158,-3.7221,0,0,0,0,0,0,-3.7058,-3.7063,-3.7082,-3.7073,-3.7075,-3.7117,-3.7067,-3.7062,-3.7069,-3.7063,-3.7055,-3.7052,-3.7033,-3.7066,-3.707,-3.71,-3.7038,-3.7149,-3.7153,-3.7157,-3.7216,-3.7226,-3.7234,0,0,0,0,0,-3.7057,-3.71,-3.7084,-3.7087,-3.7099,-3.7119,-3.712,-3.7098,-3.7071,-3.7091,-3.708,-3.7052,-3.7095,-3.707,-3.7074,-3.7105,-3.7147,-3.7152,-3.7157,-3.7212,-3.7224,-3.7234,0,0,0,0,0,0,-3.7113,-3.7098,-3.708,-3.7121,-3.7122,-3.711,-3.7133,-3.7111,-3.7119,-3.7113,-3.7085,-3.7084,-3.712,-3.7115,-3.7088,-3.7154,-3.7116,-3.7122,-3.7156,-3.7168,-3.7177,-3.7178,-3.7039,0,0,0,0,0,-3.713,-3.7148,-3.7133,-3.7171,-3.7172,-3.7153,-3.7161,-3.7144,-3.7143,-3.7143,-3.7134,-3.7135,-3.7148,-3.7158,-3.7169,-3.7215,-3.7213,-3.7238,-3.7247,-3.7255,-3.7261,-3.7286,-3.7297,-3.7176,-3.7176,-3.7176,0,0,-3.7165,-3.7159,-3.7172,-3.7182,-3.718,-3.72,-3.7154,-3.7175,-3.7189,-3.7146,-3.7176,-3.717,-3.7168,-3.7208,-3.7225,-3.7205,-3.7294,-3.7261,-3.7268,-3.7269,-3.7292,-3.7304,-3.7314,-3.7179,-3.7178,-3.7178,0,0,-3.724,-3.7237,-3.7268,-3.7268,-3.7267,-3.7254,-3.7262,-3.7253,-3.7248,-3.7277,-3.7246,-3.7262,-3.7285,-3.7286,-3.7289,-3.7365,-3.734,-3.7369,-3.7418,-3.7442,-3.7452,-3.746,-3.7488,-3.7499,-3.7375,-3.7375,-3.7375,0,-3.7284,-3.7312,-3.7287,-3.7312,-3.7317,-3.728,-3.7312,-3.7312,-3.7315,-3.7319,-3.7297,-3.7327,-3.7323,-3.7362,-3.7381,-3.7385,-3.7393,-3.737,-3.7453,-3.7461,-3.7468,-3.7495,-3.7505,-3.7379,-3.7378,-3.7378,-3.7378,0,-3.7367,-3.7386,-3.7412,-3.7416,-3.7424,-3.7452,-3.7432,-3.7443,-3.7426,-3.7415,-3.7446,-3.744,-3.745,-3.7458,-3.7441,-3.7496,-3.7484,-3.7458,-3.7418,-3.7484,-3.7508,-3.7518,-3.7384,-3.7383,-3.7382,-3.7381,0,0,-3.7476,-3.7467,-3.7477,-3.7479,-3.7475,-3.749,-3.7516,-3.7527,-3.7537,-3.754,-3.7562,-3.7583,-3.7559,-3.7563,-3.7545,-3.7567,-3.7629,-3.7538,-3.7538,-3.7556,-3.769,-3.7711,-3.7723,-3.7612,-3.7614,-3.7615,-3.7691,0,-3.7549,-3.7594,-3.7573,-3.7621,-3.7639,-3.7604,-3.7627,-3.7628,-3.7619,-3.7633,-3.7622,-3.7638,-3.7605,-3.7607,-3.7627,-3.7617,-3.7656,-3.7611,-3.7633,-3.7634,-3.7635,-3.7735,-3.7757,-3.7828,-3.77,-3.7702,-3.7703,0,-3.764,-3.7648,-3.7698,-3.7692,-3.7698,-3.772,-3.7728,-3.7742,-3.7742,-3.7733,-3.7739,-3.7716,-3.7742,-3.7702,-3.7738,-3.7708,-3.7716,-3.7712,-3.7714,-3.7716,-3.7673,-3.7741,-3.785,-3.7862,-3.7717,-3.7716,-3.7715,0,-3.7716,-3.7739,-3.7772,-3.7775,-3.7768,-3.7784,-3.7782,-3.778,-3.7788,-3.7795,-3.78,-3.7809,-3.7815,-3.7823,-3.7804,-3.7777,-3.7842,-3.7801,-3.7837,-3.7838,-3.7853,-3.7852,-3.7966,-3.7856,-3.7856,-3.7856,-3.7856,0,-3.78,-3.7832,-3.7807,-3.7827,-3.7862,-3.7838,-3.7873,-3.7867,-3.7865,-3.7884,-3.7854,-3.7872,-3.7845,-3.7861,-3.7846,-3.7878,-3.788,-3.7875,-3.7871,-3.7878,-3.7879,-3.7883,-3.7878,-3.7859,-3.7858,-3.7857,-3.7857,0,-3.7892,-3.7876,-3.791,-3.7901,-3.79,-3.7926,-3.7918,-3.7937,-3.7926,-3.795,-3.7954,-3.7937,-3.7954,-3.7936,-3.7951,-3.7941,-3.7985,-3.7973,-3.7985,-3.7982,-3.8019,-3.8017,-3.8141,-3.8156,-3.8035,-3.8037,-3.8037,0,-3.7947,-3.7971,-3.7965,-3.7976,-3.7976,-3.7994,-3.8002,-3.7979,-3.7989,-3.7991,-3.8009,-3.8024,-3.8034,-3.8063,-3.8052,-3.8063,-3.8052,-3.8094,-3.8053,-3.8061,-3.8054,-3.8053,-3.8056,-3.8103,-3.8105,-3.8106,-3.8107,0,-3.8047,-3.8038,-3.8051,-3.8063,-3.8074,-3.8081,-3.8086,-3.8096,-3.8072,-3.8085,-3.8102,-3.811,-3.8126,-3.8141,-3.815,-3.8147,-3.8124,-3.812,-3.8129,-3.8137,-3.8144,-3.8142,-3.8009,-3.8117,-3.8116,-3.8115,-3.8115,-3.8114,-3.8122,-3.8143,-3.8143,-3.8159,-3.816,-3.8166,-3.8183,-3.8175,-3.8189,-3.8201,-3.8186,-3.8208,-3.8208,-3.8217,-3.8217,-3.8234,-3.8216,-3.8229,-3.8232,-3.8236,-3.8242,-3.8141,-3.8235,-3.8235,-3.8235,-3.8234,-3.8234,0,-3.8222,-3.822,-3.8235,-3.8244,-3.8257,-3.8234,-3.8238,-3.825,-3.827,-3.8272,-3.8283,-3.8304,-3.8318,-3.8309,-3.8321,-3.8336,-3.8326,-3.834,-3.8339,-3.834,-3.8257,-3.8249,-3.8349,-3.8349,-3.8349,-3.8349,-3.8349,-3.8349,-3.8275,-3.8309,-3.83,-3.8334,-3.8332,-3.8354,-3.8359,-3.8364,-3.8365,-3.839,-3.8402,-3.8396,-3.8393,-3.8405,-3.8418,-3.8414,-3.8421,-3.844,-3.8433,-3.8356,-3.8345,-3.8334,-3.8326,-3.8441,-3.8441,-3.8514,-3.8515,-3.8515]}]]